�N����,����,�~����,�C��,���x,�C��,����,���ϕ���,�ő�u�ԕ���,�ő厞����,���˗�,�I�_���x,�n�����x,�ő啗���N��,DTYPE
"21/10/24","00:10",0.0,7.2,89.0,1021.5,310.1,2.0,2.7,328.2,0.00,5.6,16.1,"00:00:08",1
"21/10/24","00:20",0.0,7.6,89.3,1021.3,299.0,2.0,3.7,322.4,0.00,6.0,15.7,"00:14:48",1
"21/10/24","00:30",0.0,7.6,89.6,1021.5,308.4,1.8,2.5,318.9,0.00,6.0,15.6,"00:21:04",1
"21/10/24","00:40",0.0,7.1,89.7,1021.5,282.1,1.1,2.0,315.8,0.00,5.6,15.5,"00:30:16",1
"21/10/24","00:50",0.0,6.7,90.2,1021.5,301.1,1.1,2.4,321.0,0.00,5.2,15.6,"00:48:24",1
"21/10/24","01:00",0.0,6.4,90.6,1021.5,317.4,1.5,2.6,323.5,0.00,5.0,15.6,"00:50:56",1
"21/10/24","01:10",0.0,6.4,90.9,1021.5,288.0,1.3,2.0,302.7,0.00,5.1,15.6,"01:04:40",1
"21/10/24","01:20",0.0,6.2,91.1,1021.5,307.2,0.8,1.8,312.1,0.00,4.9,15.2,"01:18:48",1
"21/10/24","01:30",0.0,6.3,91.5,1021.8,300.3,1.6,2.2,318.2,0.00,5.1,15.5,"01:26:16",1
"21/10/24","01:40",0.0,6.6,91.7,1021.8,291.0,0.8,1.8,273.1,0.00,5.4,15.6,"01:39:28",1
"21/10/24","01:50",0.0,6.6,92.0,1021.5,306.5,1.6,2.4,337.7,0.00,5.4,15.5,"01:49:36",1
"21/10/24","02:00",0.0,6.6,92.1,1021.5,306.1,1.7,2.2,322.9,0.00,5.5,15.4,"01:56:00",1
"21/10/24","02:10",0.0,6.6,92.3,1021.8,310.9,1.3,2.4,320.8,0.00,5.5,15.5,"02:03:12",1
"21/10/24","02:20",0.0,6.3,92.5,1021.8,312.4,1.7,2.7,318.9,0.00,5.2,15.4,"02:14:24",1
"21/10/24","02:30",0.0,6.1,92.8,1021.8,312.7,1.1,1.8,306.5,0.00,5.1,15.1,"02:28:32",1
"21/10/24","02:40",0.0,6.2,93.0,1022.0,288.0,1.0,2.0,309.0,0.00,5.2,15.3,"02:32:00",1
"21/10/24","02:50",0.0,6.6,93.2,1021.5,294.5,1.7,2.6,326.1,0.00,5.6,15.2,"02:48:00",1
"21/10/24","03:00",0.0,6.7,93.2,1022.0,299.9,1.1,2.2,318.7,0.00,5.7,15.0,"02:59:52",1
"21/10/24","03:10",0.0,6.5,93.5,1022.0,323.6,1.5,2.1,310.3,0.00,5.6,15.2,"03:02:00",1
"21/10/24","03:20",0.0,6.2,93.5,1022.0,311.1,1.5,2.1,318.7,0.00,5.3,15.1,"03:19:12",1
"21/10/24","03:30",0.0,6.0,93.7,1022.0,302.2,1.3,2.4,332.7,0.00,5.1,15.0,"03:21:20",1
"21/10/24","03:40",0.0,5.6,93.9,1021.8,302.2,0.8,1.8,313.1,0.00,4.7,14.8,"03:38:56",1
"21/10/24","03:50",0.0,5.4,94.0,1021.8,293.1,1.0,1.8,320.0,0.00,4.6,15.0,"03:48:48",1
"21/10/24","04:00",0.0,5.4,94.2,1022.5,309.5,0.8,1.8,313.4,0.00,4.6,15.0,"03:56:32",1
"21/10/24","04:10",0.0,5.3,94.4,1022.3,322.3,1.7,2.8,341.9,0.00,4.5,15.0,"04:06:10",1
"21/10/24","04:20",0.0,5.2,94.5,1021.8,290.2,1.2,2.4,322.6,0.00,4.4,14.9,"04:11:36",1
"21/10/24","04:30",0.0,5.4,94.7,1022.0,292.9,1.5,1.9,304.8,0.00,4.7,15.0,"04:24:40",1
"21/10/24","04:40",0.0,5.7,94.8,1021.8,305.3,1.5,2.6,304.7,0.00,5.0,14.9,"04:37:36",1
"21/10/24","04:50",0.0,6.1,94.8,1022.0,311.6,1.7,2.5,334.7,0.00,5.4,14.9,"04:44:08",1
"21/10/24","05:00",0.0,6.0,94.8,1022.0,297.2,1.0,1.8,270.4,0.00,5.3,14.8,"04:57:44",1
"21/10/24","05:10",0.0,6.2,95.0,1022.0,288.5,1.6,2.5,295.4,0.00,5.5,14.5,"05:07:44",1
"21/10/24","05:20",0.0,6.2,95.0,1021.8,291.0,1.3,2.2,325.0,0.00,5.5,14.7,"05:18:00",1
"21/10/24","05:30",0.0,5.9,95.1,1022.0,332.3,0.3,1.3,317.9,0.00,5.2,14.8,"05:26:32",1
"21/10/24","05:40",0.0,5.6,95.3,1021.8,311.1,1.8,2.5,323.2,0.00,4.9,14.7,"05:32:40",1
"21/10/24","05:50",0.0,5.3,95.4,1021.8,288.5,1.1,1.9,309.3,0.00,4.7,14.6,"05:42:08",1
"21/10/24","06:00",0.0,5.2,95.5,1021.8,296.6,1.1,1.8,313.0,0.00,4.6,14.6,"05:56:32",1
"21/10/24","06:10",0.0,5.3,95.7,1021.8,320.3,1.8,2.5,324.7,0.00,4.7,14.5,"06:05:44",1
"21/10/24","06:20",0.0,5.1,95.7,1021.8,301.7,1.1,1.7,315.3,0.00,4.5,14.4,"06:10:08",1
"21/10/24","06:30",0.0,4.9,95.9,1022.0,293.5,0.7,1.2,270.4,0.00,4.3,14.5,"06:22:34",1
"21/10/24","06:40",0.0,4.7,96.0,1021.8,294.3,0.7,1.4,292.5,0.00,4.2,14.3,"06:39:30",1
"21/10/24","06:50",0.0,4.9,96.2,1021.8,317.7,1.8,2.2,323.1,0.00,4.4,14.5,"06:41:12",1
"21/10/24","07:00",0.0,5.1,96.2,1021.5,310.7,1.6,2.0,315.3,0.00,4.6,14.5,"06:57:28",1
"21/10/24","07:10",0.0,5.5,96.3,1021.8,300.1,1.1,2.2,313.5,0.00,5.0,14.1,"07:09:06",1
"21/10/24","07:20",0.0,6.2,96.3,1021.8,308.0,1.2,2.0,318.8,0.00,5.7,14.2,"07:14:32",1
"21/10/24","07:30",0.0,7.0,96.2,1021.8,305.8,1.1,2.0,320.6,0.01,6.5,14.2,"07:21:36",1
"21/10/24","07:40",0.0,7.8,96.1,1022.0,254.3,0.1,0.6,300.7,0.02,7.3,14.2,"07:32:40",1
"21/10/24","07:50",0.0,8.7,96.1,1022.3,258.4,0.2,0.6,284.2,0.03,8.2,14.2,"07:41:00",1
"21/10/24","08:00",0.0,9.4,95.9,1022.7,107.9,0.2,0.8,103.1,0.05,8.8,14.2,"07:50:32",1
"21/10/24","08:10",0.0,10.1,95.6,1022.7,264.4,0.3,0.6,82.8,0.08,9.5,13.9,"08:02:08",1
"21/10/24","08:20",0.0,10.4,94.9,1023.0,323.7,0.3,0.9,23.4,0.12,9.7,14.4,"08:16:08",1
"21/10/24","08:30",0.0,10.9,94.2,1022.7,315.5,0.5,1.2,322.9,0.15,10.0,14.1,"08:28:56",1
"21/10/24","08:40",0.0,11.4,93.5,1023.4,279.6,0.3,0.9,127.3,0.18,10.4,14.2,"08:38:48",1
"21/10/24","08:50",0.0,11.7,92.3,1023.7,270.4,0.5,1.1,313.9,0.21,10.5,14.3,"08:41:04",1
"21/10/24","09:00",0.0,11.7,90.8,1023.7,38.2,0.6,1.1,26.6,0.20,10.3,14.4,"08:51:28",1
"21/10/24","09:10",0.0,12.2,87.9,1023.9,295.3,0.7,2.2,340.5,0.27,10.3,14.4,"09:08:24",1
"21/10/24","09:20",0.0,13.1,84.0,1024.1,260.6,0.7,1.7,216.7,0.29,10.5,14.4,"09:19:52",1
"21/10/24","09:30",0.0,13.3,79.8,1023.9,209.2,0.6,1.6,168.2,0.24,9.9,14.5,"09:29:28",1
"21/10/24","09:40",0.0,13.5,75.8,1023.9,222.2,0.7,1.3,198.7,0.24,9.4,14.5,"09:32:40",1
"21/10/24","09:50",0.0,13.4,73.6,1023.9,315.6,1.0,1.8,333.1,0.15,8.8,14.5,"09:43:36",1
"21/10/24","10:00",0.0,13.7,73.0,1023.4,279.1,0.7,1.3,252.2,0.18,9.0,14.6,"09:53:28",1
"21/10/24","10:10",0.0,14.0,72.3,1023.4,303.3,0.3,1.0,341.0,0.21,9.1,14.7,"10:01:52",1
"21/10/24","10:20",0.0,14.5,70.4,1023.4,271.1,0.6,1.3,247.3,0.24,9.2,14.9,"10:19:52",1
"21/10/24","10:30",0.0,14.8,70.4,1023.0,246.5,0.5,1.1,230.2,0.28,9.5,14.8,"10:20:08",1
"21/10/24","10:40",0.0,15.1,66.5,1023.0,234.0,0.7,1.8,243.0,0.28,9.0,14.8,"10:38:48",1
"21/10/24","10:50",0.0,15.1,66.0,1023.0,262.5,0.3,1.1,61.6,0.18,8.8,14.7,"10:46:56",1
"21/10/24","11:00",0.0,15.2,65.5,1023.0,189.4,0.6,1.8,121.3,0.22,8.8,15.0,"10:53:28",1
"21/10/24","11:10",0.0,15.2,64.0,1022.7,240.8,0.6,1.6,229.3,0.19,8.5,15.2,"11:04:56",1
"21/10/24","11:20",0.0,15.0,63.2,1023.0,216.8,0.7,1.4,230.0,0.15,8.1,15.0,"11:18:16",1
"21/10/24","11:30",0.0,15.0,63.0,1022.7,193.9,0.5,1.3,127.6,0.16,8.1,15.3,"11:27:04",1
"21/10/24","11:40",0.0,15.1,61.8,1022.7,252.5,0.8,1.9,245.9,0.18,7.9,15.1,"11:34:08",1
"21/10/24","11:50",0.0,15.6,62.5,1022.0,238.9,0.6,1.3,258.2,0.21,8.5,15.3,"11:42:48",1
"21/10/24","12:00",0.0,16.0,61.2,1022.0,331.6,0.6,1.4,312.1,0.23,8.6,15.2,"11:50:24",1
"21/10/24","12:10",0.0,16.1,60.9,1022.3,8.2,0.7,2.1,343.8,0.22,8.6,15.5,"12:07:52",1
"21/10/24","12:20",0.0,16.2,62.2,1021.8,330.2,0.5,1.8,336.6,0.19,9.0,15.2,"12:10:02",1
"21/10/24","12:30",0.0,16.7,60.9,1021.5,283.5,1.3,2.4,341.2,0.33,9.2,15.7,"12:22:00",1
"21/10/24","12:40",0.0,17.1,60.9,1021.8,286.5,0.7,2.0,318.9,0.30,9.5,15.5,"12:38:56",1
"21/10/24","12:50",0.0,17.4,58.2,1021.3,327.2,1.0,2.7,316.2,0.29,9.2,15.7,"12:41:28",1
"21/10/24","13:00",0.0,17.6,58.4,1021.5,303.6,0.7,1.7,315.9,0.30,9.4,15.8,"12:50:02",1
"21/10/24","13:10",0.0,17.6,57.7,1020.8,293.2,1.2,2.4,318.9,0.29,9.2,15.9,"13:04:32",1
"21/10/24","13:20",0.0,17.5,59.4,1020.8,222.8,1.0,2.5,226.7,0.28,9.5,16.1,"13:11:20",1
"21/10/24","13:30",0.0,18.2,57.5,1020.4,230.4,0.6,1.8,249.7,0.36,9.7,16.0,"13:23:12",1
"21/10/24","13:40",0.0,18.3,56.3,1020.6,166.8,0.8,1.9,126.9,0.26,9.5,16.1,"13:37:04",1
"21/10/24","13:50",0.0,18.1,55.3,1020.6,4.8,1.0,2.1,300.7,0.24,9.0,16.2,"13:46:24",1
"21/10/24","14:00",0.0,18.3,56.1,1020.1,242.8,0.6,1.6,340.4,0.18,9.4,16.2,"13:53:04",1
"21/10/24","14:10",0.0,18.1,54.9,1020.1,18.4,0.5,0.9,349.8,0.20,8.9,16.4,"14:06:24",1
"21/10/24","14:20",0.0,18.5,54.3,1019.9,223.4,0.8,1.8,236.4,0.21,9.1,16.4,"14:11:20",1
"21/10/24","14:30",0.0,18.2,54.4,1019.4,120.6,0.6,1.3,11.7,0.12,8.9,16.4,"14:23:04",1
"21/10/24","14:40",0.0,18.2,55.8,1019.4,235.3,0.8,1.7,234.4,0.14,9.3,16.3,"14:33:12",1
"21/10/24","14:50",0.0,17.9,56.0,1019.7,236.0,0.8,1.9,231.7,0.11,9.0,16.6,"14:41:04",1
"21/10/24","15:00",0.0,17.9,55.3,1019.7,236.4,0.6,3.2,238.2,0.13,8.9,16.3,"14:58:48",1
"21/10/24","15:10",0.0,17.9,55.6,1019.9,231.9,1.1,2.6,237.9,0.12,8.9,16.7,"15:02:40",1
"21/10/24","15:20",0.0,17.8,54.5,1019.4,312.1,0.5,1.6,252.2,0.09,8.6,16.5,"15:12:00",1
"21/10/24","15:30",0.0,17.7,54.5,1019.7,113.8,0.3,1.2,42.9,0.08,8.5,16.5,"15:29:36",1
"21/10/24","15:40",0.0,17.8,55.7,1019.2,3.4,0.3,1.0,336.3,0.07,8.9,16.6,"15:32:56",1
"21/10/24","15:50",0.0,17.8,55.2,1019.2,299.9,0.3,1.2,122.3,0.07,8.7,16.7,"15:49:20",1
"21/10/24","16:00",0.0,17.6,57.4,1019.4,231.6,0.6,1.0,131.5,0.06,9.1,16.7,"15:50:08",1
"21/10/24","16:10",0.0,17.3,57.6,1019.2,320.9,0.8,2.0,341.7,0.05,8.9,16.7,"16:07:44",1
"21/10/24","16:20",0.0,17.4,62.1,1019.2,341.3,1.0,1.8,329.2,0.04,10.1,17.0,"16:10:56",1
"21/10/24","16:30",0.0,16.9,64.2,1019.2,331.1,1.3,2.1,341.6,0.03,10.1,16.8,"16:21:12",1
"21/10/24","16:40",0.0,16.8,66.2,1019.4,326.7,1.2,2.0,339.4,0.03,10.5,17.0,"16:37:28",1
"21/10/24","16:50",0.0,16.9,66.9,1019.4,334.7,1.2,2.5,328.1,0.04,10.8,17.1,"16:49:44",1
"21/10/24","17:00",0.0,16.6,67.0,1019.7,303.9,1.0,1.8,329.1,0.01,10.5,16.9,"16:51:36",1
"21/10/24","17:10",0.0,16.4,68.0,1019.7,325.4,0.8,1.2,344.4,0.01,10.5,16.9,"17:08:48",1
"21/10/24","17:20",0.0,15.8,69.1,1019.4,324.8,0.8,1.6,320.1,0.00,10.2,17.0,"17:16:16",1
"21/10/24","17:30",0.0,14.9,70.1,1019.2,321.0,0.7,1.4,339.5,0.00,9.5,17.1,"17:20:48",1
"21/10/24","17:40",0.0,14.5,72.0,1019.0,299.7,1.1,1.4,309.0,0.00,9.6,16.8,"17:33:30",1
"21/10/24","17:50",0.0,14.2,73.7,1019.2,277.4,1.1,1.8,264.7,0.00,9.6,16.9,"17:40:32",1
"21/10/24","18:00",0.0,14.0,75.1,1019.7,293.0,1.1,1.4,327.6,0.00,9.7,16.9,"17:57:12",1
"21/10/24","18:10",0.0,13.7,76.4,1019.9,304.3,1.0,1.4,330.1,0.00,9.7,17.0,"18:08:48",1
"21/10/24","18:20",0.0,13.5,77.7,1019.7,319.3,1.0,1.7,324.5,0.00,9.7,16.9,"18:11:28",1
"21/10/24","18:30",0.0,13.5,78.9,1019.9,313.7,1.1,1.8,305.0,0.00,10.0,16.7,"18:23:12",1
"21/10/24","18:40",0.0,13.5,79.6,1019.9,320.1,1.2,2.0,339.4,0.00,10.1,16.7,"18:31:44",1
"21/10/24","18:50",0.0,13.4,80.1,1019.9,294.7,1.1,1.8,271.8,0.00,10.1,16.7,"18:46:42",1
"21/10/24","19:00",0.0,13.5,80.0,1020.1,286.3,1.3,2.0,289.8,0.00,10.2,16.7,"18:52:48",1
"21/10/24","19:10",0.0,13.4,79.5,1019.9,279.5,1.1,1.6,263.6,0.00,10.0,16.5,"19:07:08",1
"21/10/24","19:20",0.0,13.3,79.0,1020.1,303.3,1.2,1.9,329.6,0.00,9.8,16.8,"19:15:16",1
"21/10/24","19:30",0.0,13.2,78.7,1020.1,288.0,1.0,1.7,267.7,0.00,9.6,16.8,"19:29:48",1
"21/10/24","19:40",0.0,13.2,78.7,1020.1,293.8,1.2,2.2,313.8,0.00,9.6,16.8,"19:36:46",1
"21/10/24","19:50",0.0,12.9,79.3,1020.1,326.3,1.3,2.2,324.8,0.00,9.4,16.7,"19:44:12",1
"21/10/24","20:00",0.0,12.5,80.3,1019.9,302.0,1.0,1.8,317.6,0.00,9.2,16.5,"19:59:08",1
"21/10/24","20:10",0.0,12.4,81.1,1019.9,301.2,1.1,1.7,242.4,0.00,9.3,16.6,"20:06:52",1
"21/10/24","20:20",0.0,12.5,81.7,1019.9,306.1,1.2,2.1,331.9,0.00,9.5,16.6,"20:19:38",1
"21/10/24","20:30",0.0,12.3,82.4,1020.1,314.6,1.5,2.1,323.9,0.00,9.4,16.7,"20:27:46",1
"21/10/24","20:40",0.0,12.4,83.0,1020.4,294.6,1.2,1.8,269.9,0.00,9.6,16.4,"20:33:02",1
"21/10/24","20:50",0.0,12.5,83.4,1020.1,314.7,1.6,1.9,315.5,0.00,9.8,16.5,"20:46:06",1
"21/10/24","21:00",0.0,12.4,83.7,1020.4,298.3,1.1,1.7,319.9,0.00,9.8,16.4,"20:50:12",1
"21/10/24","21:10",0.0,12.3,84.0,1020.1,299.8,1.2,2.0,335.5,0.00,9.7,16.4,"21:09:00",1
"21/10/24","21:20",0.0,12.4,84.5,1020.4,315.6,1.6,2.1,312.8,0.00,9.9,16.2,"21:12:12",1
"21/10/24","21:30",0.0,12.3,84.8,1020.4,300.5,1.3,1.9,324.3,0.00,9.9,16.6,"21:29:04",1
"21/10/24","21:40",0.0,12.3,85.1,1020.4,308.5,1.3,1.9,317.9,0.00,9.9,16.4,"21:33:16",1
"21/10/24","21:50",0.0,12.3,85.5,1020.4,283.8,1.0,1.8,283.2,0.00,10.0,16.2,"21:43:28",1
"21/10/24","22:00",0.0,12.3,85.6,1020.4,293.1,1.1,1.4,291.3,0.00,10.0,16.3,"21:52:54",1
"21/10/24","22:10",0.0,12.4,85.9,1020.4,288.1,1.2,1.9,253.9,0.00,10.1,16.2,"22:05:20",1
"21/10/24","22:20",0.0,12.3,86.1,1020.1,299.1,1.2,1.6,315.5,0.00,10.1,16.3,"22:10:32",1
"21/10/24","22:30",0.0,12.3,86.3,1020.4,298.6,1.0,1.7,310.4,0.00,10.1,16.3,"22:28:44",1
"21/10/24","22:40",0.0,12.3,86.5,1020.1,292.7,1.1,1.8,283.1,0.00,10.2,16.2,"22:35:34",1
"21/10/24","22:50",0.0,12.3,86.6,1019.9,320.0,0.6,1.1,307.5,0.00,10.2,16.2,"22:46:12",1
"21/10/24","23:00",0.0,12.3,86.9,1019.7,319.8,1.5,2.0,324.1,0.00,10.2,16.2,"22:57:26",1
"21/10/24","23:10",0.0,12.1,87.2,1019.7,303.5,0.8,1.4,335.1,0.00,10.1,16.2,"23:00:08",1
"21/10/24","23:20",0.0,12.1,87.6,1020.1,296.4,1.0,1.6,311.1,0.00,10.1,16.2,"23:16:08",1
"21/10/24","23:30",0.0,12.3,87.9,1019.7,300.7,0.8,1.4,314.4,0.00,10.4,16.2,"23:22:58",1
"21/10/24","23:40",0.0,12.5,88.1,1019.7,312.7,1.1,1.8,333.3,0.00,10.6,16.1,"23:34:20",1
"21/10/24","23:50",0.0,12.5,88.1,1019.2,293.2,0.8,1.1,304.5,0.00,10.6,16.2,"23:40:08",1
"21/10/24","24:00",0.0,12.6,88.4,1019.4,278.4,1.0,1.3,320.4,0.00,10.8,16.2,"23:56:00",1
